Weather History for Victoria, BC

Change the Weather History Date:

Monday, January 7, 2013

  Actual Average Record
Temperature  
Mean Temperature 46 °F -  
Max Temperature 52 °F 45 °F 59 °F (2002)
Min Temperature 39 °F 33 °F 26 °F (2008)
Degree Days  
Heating Degree Days 20    
Moisture  
Dew Point 40 °F    
Average Humidity 85    
Maximum Humidity 100    
Minimum Humidity 53    
Precipitation  
Precipitation 0.31 in 0.17 in - ()
Sea Level Pressure  
Sea Level Pressure 29.91 in    
Wind  
Wind Speed 11 mph ()    
Max Wind Speed 23 mph    
Max Gust Speed 31 mph    
Visibility 11.8 miles    
Events Rain    
Averages and records for this station are not official NWS values.
T = Trace of Precipitation, MM = Missing Value Source: Averaged Metar Reports

Daily Weather History Graph

Daily Weather History Graph

Search for Another Location

Airport:

Trip Planner

Search our weather history database for the weather conditions in past years. The results will help you decide how hot, cold, wet, or windy it might be!

Date:

Astronomy

Jan. 07, 2013 Rise Set
Actual Time 8:05 AM PST 4:35 PM PST
Civil Twilight 7:28 AM PST 5:12 PM PST
Nautical Twilight 6:49 AM PST 5:51 PM PST
Astronomical Twilight 6:11 AM PST 6:29 PM PST
Moon 3:30 AM PST (1/7) 12:55 PM PST (1/7)
Length of Visible Light 9h 43m
Length of Day
8h 30m
Waning Crescent, 21% of the Moon is Illuminated
Jan 7
Waning Crescent
Jan 11
New
Jan 18
First Quarter
Jan 26
Full
Feb 3
Last Quarter

Hourly Weather History & Observations

Time (PST) Temp. Windchill Dew Point Humidity Pressure Visibility Wind Dir Wind Speed Gust Speed Precip Events Conditions
12:00 AM 42.8 °F 34.8 °F 41.0 °F 93% 29.93 in 5.0 mi SE 17.3 mph 24.2 mph N/A Rain Light Rain
1:00 AM 42.8 °F 35.8 °F 41.0 °F 93% 29.91 in 5.0 mi SE 13.8 mph 19.6 mph N/A Rain Light Rain
2:00 AM 42.8 °F 36.2 °F 41.0 °F 93% 29.90 in 5.0 mi SE 12.7 mph 18.4 mph N/A Rain Light Rain
3:00 AM 42.8 °F 37.0 °F 41.0 °F 93% 29.88 in 5.0 mi SE 10.4 mph - N/A Rain Light Rain
4:00 AM 43 °F - 41 °F 92% 29.85 in 5 mi SE 12.7 mph - - Rain Light Rain
4:00 AM 42.8 °F 36.6 °F 41.0 °F 93% 29.85 in 5.0 mi SE 11.5 mph - N/A Rain Light Rain
5:00 AM 42.8 °F 36.6 °F 41.0 °F 93% 29.80 in 5.0 mi SSE 11.5 mph - N/A Rain Light Rain
6:00 AM 42.8 °F 36.6 °F 41.0 °F 93% 29.79 in 3.0 mi SSE 11.5 mph - N/A Rain Light Rain
6:36 AM 42.8 °F 38.0 °F - N/A% - 3.0 mi SSE 8.1 mph - N/A Rain Light Rain
7:00 AM 42.8 °F 36.2 °F 41.0 °F 93% 29.77 in 2.0 mi SE 12.7 mph - N/A Rain Light Rain
7:41 AM 42.8 °F 38.0 °F - N/A% - 1.2 mi SSE 8.1 mph - N/A   Light Drizzle
8:00 AM 42.8 °F 37.5 °F 42.8 °F 100% 29.79 in 2.0 mi SE 9.2 mph - N/A   Light Drizzle
8:16 AM 42.8 °F 36.6 °F - N/A% - 3.0 mi SSE 11.5 mph - N/A Rain Light Rain
8:36 AM 42.8 °F 37.0 °F - N/A% - 8.0 mi SE 10.4 mph - N/A   Overcast
9:00 AM 42.8 °F 35.8 °F 42.8 °F 100% 29.78 in 8.0 mi SSE 13.8 mph - N/A   Mostly Cloudy
10:00 AM 44 °F - 42 °F 91% 29.81 in 15 mi SSE 17.3 mph - -   Partly Cloudy
10:00 AM 44.6 °F 37.2 °F 42.8 °F 93% 29.81 in 15.0 mi South 17.3 mph - N/A   Mostly Cloudy
11:00 AM 46.4 °F 41.9 °F 44.6 °F 93% 29.81 in 15.0 mi South 9.2 mph 23.0 mph N/A   Mostly Cloudy
12:00 PM 50.0 °F - 46.4 °F 87% 29.83 in 15.0 mi Calm Calm - N/A   Mostly Cloudy
1:00 PM 51.8 °F - 44.6 °F 76% 29.85 in 20.0 mi West 13.8 mph - N/A   Mostly Cloudy
2:00 PM 51.8 °F - 42.8 °F 71% 29.87 in 20.0 mi WSW 6.9 mph - N/A   Overcast
3:00 PM 51.8 °F - 39.2 °F 62% 29.91 in 20.0 mi West 23.0 mph 31.1 mph N/A   Mostly Cloudy
4:00 PM 50 °F - 38 °F 53% 29.95 in 19 mi West 20.7 mph - -   Scattered Clouds
4:00 PM 50.0 °F - 37.4 °F 62% 29.95 in 20.0 mi West 19.6 mph 29.9 mph N/A   Mostly Cloudy
5:00 PM 46.4 °F 40.7 °F 37.4 °F 71% 29.98 in 20.0 mi West 12.7 mph - N/A   Overcast
6:00 PM 46.4 °F 41.5 °F 35.6 °F 66% 30.01 in 20.0 mi West 10.4 mph - N/A   Scattered Clouds
7:00 PM 42.8 °F - 39.2 °F 87% 30.05 in 20.0 mi NE 2.3 mph - N/A   Mostly Cloudy
8:00 PM 39.2 °F 37.0 °F 37.4 °F 93% 30.07 in 20.0 mi SSW 3.5 mph - N/A   Mostly Cloudy
9:00 PM 44.6 °F 40.2 °F 37.4 °F 76% 30.09 in 20.0 mi West 8.1 mph - N/A   Mostly Cloudy
10:00 PM 39 °F - 36 °F 84% 30.11 in 19 mi West 3.5 mph - -   Scattered Clouds
10:00 PM 39.2 °F 37.0 °F 35.6 °F 87% 30.11 in 20.0 mi West 3.5 mph - N/A   Mostly Cloudy
11:00 PM 39.2 °F - 37.4 °F 93% 30.12 in 15.0 mi SSE 2.3 mph - N/A   Mostly Cloudy